Content
SEND FEEDBACK

Daily
Averages
Monthly
Summary
United States of America

ST. LOUIS, MISSOURI


Home > North America > United States > Missouri
Elevation: 163 meters     Latitude: 38 45N     Longitude: 090 22W

WEATHER
 
SELECT A DAY
Number of Records: 196,207;   Date Range: 1/1/95 - 7/7/14
 
SHARE

PRINT THIS DATA

[ ← Previous Day ]
WEATHER ALMANAC - 26 MARCH, 2013
[ Next Day → ]
[ °F ]   °C
Weather ElementAverageHighLow
Temperature0.8 °C3.9 °C (2:54 pm)-3.9 °C (10:54 pm)
Dewpoint-5.4 °C-4.4 °C (1:54 am)-6.7 °C (4:54 pm)
Humidity64.6 %85 % (10:54 pm)46 % (4:54 pm)
Barometer1027.1 hPa1029.1 hPa (11:54 pm)1024 hPa (1:54 am)
Wind Speed12.2 km/h22.2 km/h (4:54 pm)
Wind Gust29.6 km/h (2:54 pm)
Weather ElementAverage
Visibility16.1 km
Wind DirectionWSW (254.8 °)

Weather ElementTotal
Precipitation---
Heating Degree Days18.3 (Base 18.3)
Averaged from 23 records on 26 March, 2013
WEATHER CONDITIONS BREAKOUT
WIND DIRECTION BREAKOUT
WEATHER BY HOUR - 26 MARCH, 2013
[ °F ]   °C
Local TimeTemperatureDewpointHumidityBarometerVisibilityWind DirectionWind SpeedGust SpeedPrecipitationEventsConditions
1:54 AM0 °C-4.4 °C73 %1024 hPa16.1 kmWest (280°)13 km/hOvercast
2:54 AM0 °C-4.4 °C73 %1024 hPa16.1 kmWNW (290°)14.8 km/hOvercast
3:54 AM0 °C-4.4 °C73 %1024 hPa16.1 kmWNW (300°)16.7 km/hOvercast
4:54 AM0 °C-4.4 °C73 %1024.4 hPa16.1 kmWNW (300°)13 km/hOvercast
5:54 AM0 °C-4.4 °C73 %1025.1 hPa16.1 kmWNW (290°)11.1 km/hOvercast
6:54 AM0 °C-5 °C69 %1025.7 hPa16.1 kmWest (280°)13 km/hOvercast
7:54 AM-0.6 °C-5 °C72 %1026.4 hPa16.1 kmWest (280°)11.1 km/hOvercast
8:54 AM0 °C-5 °C69 %1027.1 hPa16.1 kmWNW (290°)13 km/hOvercast
9:54 AM0.6 °C-4.4 °C70 %1027.8 hPa16.1 kmNW (310°)13 km/hScattered Clouds
10:54 AM2.2 °C-5.6 °C57 %1028.1 hPa16.1 kmWNW (300°)20.4 km/hMostly Cloudy
11:54 AM2.2 °C-5.6 °C57 %1028.1 hPa16.1 kmWNW (290°)7.4 km/hMostly Cloudy
12:54 PM3.3 °C-5.6 °C53 %1028.1 hPa16.1 kmWNW (290°)14.8 km/hMostly Cloudy
1:54 PM3.3 °C-6.1 °C51 %1027.8 hPa16.1 kmWNW (290°)14.8 km/hMostly Cloudy
2:54 PM3.9 °C-5.6 °C50 %1027.8 hPa16.1 kmWNW (290°)16.7 km/h29.6 km/hMostly Cloudy
3:54 PM3.9 °C-6.1 °C49 %1027.8 hPa16.1 kmNNW (330°)20.4 km/hMostly Cloudy
4:54 PM3.9 °C-6.7 °C46 %1027.4 hPa16.1 kmNW (310°)22.2 km/hScattered Clouds
5:54 PM3.3 °C-6.1 °C51 %1027.8 hPa16.1 kmNW (320°)20.4 km/hScattered Clouds
6:54 PM2.8 °C-6.1 °C52 %1027.8 hPa16.1 kmNNW (330°)14.8 km/hPartly Cloudy
7:54 PM1.7 °C-6.1 °C57 %1028.1 hPa16.1 kmCalmClear
8:54 PM-1.1 °C-5.6 °C72 %1028.4 hPa16.1 kmCalmClear
9:54 PM-2.2 °C-6.1 °C75 %1028.8 hPa16.1 kmCalmClear
10:54 PM-3.9 °C-6.1 °C85 %1028.8 hPa16.1 kmWSW (250°)5.6 km/hClear
11:54 PM-3.9 °C-6.1 °C85 %1029.1 hPa16.1 kmWSW (240°)5.6 km/hClear
Hourly data recorded from KSUS, located 0 kilometers away from St. Louis, Missouri







STORIES FROM OUR PARTNERS